Location: Glion
(46.4330°N, 6.9246°E)
Time: 10:52:22
(UTC+00:00)

CZ-4 R/B - Pass Details

Date: 03 March 2021
Orbit: 580 x 589 km, 97.7° (Epoch: 22 April)

Event Time Altitude Azimuth Distance (km) Brightness Sun altitude
Rises 17:41:19 0° 162° (SSE) 2,809 7.8 -4.2°
Reaches altitude 10° 17:43:28 10° 161° (SSE) 1,913 6.9 -4.6°
Maximum altitude 17:47:37 78° 76° (ENE) 608 4.4 -5.3°
Drops below altitude 10° 17:51:47 10° 350° (N) 1,925 7.2 -6.0°
Sets 17:53:58 0° 349° (NNW) 2,830 8.1 -6.4°
